Year,Month,Day,Hour,Minute,Value (Times are PST for temperature in C)
2016,07,27,00,00,15.70
2016,07,27,00,01,15.70
2016,07,27,00,02,15.70
2016,07,27,00,03,15.80
2016,07,27,00,04,15.80
2016,07,27,00,05,15.80
2016,07,27,00,06,15.80
2016,07,27,00,07,15.80
2016,07,27,00,08,15.80
2016,07,27,00,09,15.80
2016,07,27,00,10,15.80
2016,07,27,00,11,15.80
2016,07,27,00,12,15.80
2016,07,27,00,13,15.80
2016,07,27,00,14,15.80
2016,07,27,00,15,15.80
2016,07,27,00,16,15.80
2016,07,27,00,17,15.80
2016,07,27,00,18,15.80
2016,07,27,00,19,15.80
2016,07,27,00,20,15.80
2016,07,27,00,21,15.80
2016,07,27,00,22,15.80
2016,07,27,00,23,15.70
2016,07,27,00,24,15.70
2016,07,27,00,25,15.70
2016,07,27,00,26,15.70
2016,07,27,00,27,15.70
2016,07,27,00,28,15.70
2016,07,27,00,29,15.60
2016,07,27,00,30,15.60
2016,07,27,00,31,15.60
2016,07,27,00,32,15.60
2016,07,27,00,33,15.60
2016,07,27,00,34,15.50
2016,07,27,00,35,15.50
2016,07,27,00,36,15.50
2016,07,27,00,37,15.40
2016,07,27,00,38,15.40
2016,07,27,00,39,15.40
2016,07,27,00,40,15.30
2016,07,27,00,41,15.30
2016,07,27,00,42,15.30
2016,07,27,00,43,15.30
2016,07,27,00,44,15.30
2016,07,27,00,45,15.20
2016,07,27,00,46,15.20
2016,07,27,00,47,15.20
2016,07,27,00,48,15.20
2016,07,27,00,49,15.20
2016,07,27,00,50,15.20
2016,07,27,00,51,15.10
2016,07,27,00,52,15.10
2016,07,27,00,53,15.10
2016,07,27,00,54,15.00
2016,07,27,00,55,14.90
2016,07,27,00,56,14.90
2016,07,27,00,57,14.80
2016,07,27,00,58,14.80
2016,07,27,00,59,14.70
2016,07,27,01,00,14.70
2016,07,27,01,01,14.60
2016,07,27,01,02,14.60
2016,07,27,01,03,14.50
2016,07,27,01,04,14.40
2016,07,27,01,05,14.40
2016,07,27,01,06,14.30
2016,07,27,01,07,14.30
2016,07,27,01,08,14.20
2016,07,27,01,09,14.10
2016,07,27,01,10,14.00
2016,07,27,01,11,14.00
2016,07,27,01,12,13.90
2016,07,27,01,13,13.80
2016,07,27,01,14,13.80
2016,07,27,01,15,13.70
2016,07,27,01,16,13.70
2016,07,27,01,17,13.70
2016,07,27,01,18,13.60
2016,07,27,01,19,13.60
2016,07,27,01,20,13.60
2016,07,27,01,21,13.60
2016,07,27,01,22,13.50
2016,07,27,01,23,13.50
2016,07,27,01,24,13.50
2016,07,27,01,25,13.50
2016,07,27,01,26,13.40
2016,07,27,01,27,13.40
2016,07,27,01,28,13.40
2016,07,27,01,29,13.40
2016,07,27,01,30,13.30
2016,07,27,01,31,13.30
2016,07,27,01,32,13.30
2016,07,27,01,33,13.30
2016,07,27,01,34,13.30
2016,07,27,01,35,13.30
2016,07,27,01,36,13.30
2016,07,27,01,37,13.30
2016,07,27,01,38,13.30
2016,07,27,01,39,13.30
2016,07,27,01,40,13.30
2016,07,27,01,41,13.30
2016,07,27,01,42,13.30
2016,07,27,01,43,13.20
2016,07,27,01,44,13.20
2016,07,27,01,45,13.20
2016,07,27,01,46,13.20
2016,07,27,01,47,13.20
2016,07,27,01,48,13.20
2016,07,27,01,49,13.10
2016,07,27,01,50,13.10
2016,07,27,01,51,13.10
2016,07,27,01,52,13.10
2016,07,27,01,53,13.10
2016,07,27,01,54,13.10
2016,07,27,01,55,13.10
2016,07,27,01,56,13.10
2016,07,27,01,57,13.10
2016,07,27,01,58,13.10
2016,07,27,01,59,13.00
2016,07,27,02,00,13.00
2016,07,27,02,01,13.00
2016,07,27,02,02,13.00
2016,07,27,02,03,13.00
2016,07,27,02,04,13.00
2016,07,27,02,05,13.00
2016,07,27,02,06,13.00
2016,07,27,02,07,13.00
2016,07,27,02,08,13.00
2016,07,27,02,09,13.00
2016,07,27,02,10,13.00
2016,07,27,02,11,13.00
2016,07,27,02,12,13.00
2016,07,27,02,13,13.00
2016,07,27,02,14,13.00
2016,07,27,02,15,13.00
2016,07,27,02,16,12.90
2016,07,27,02,17,12.90
2016,07,27,02,18,12.90
2016,07,27,02,19,12.90
2016,07,27,02,20,13.00
2016,07,27,02,21,12.90
2016,07,27,02,22,13.00
2016,07,27,02,23,13.00
2016,07,27,02,24,13.00
2016,07,27,02,25,13.00
2016,07,27,02,26,13.00
2016,07,27,02,27,13.00
2016,07,27,02,28,13.00
2016,07,27,02,29,12.90
2016,07,27,02,30,12.90
2016,07,27,02,31,12.90
2016,07,27,02,32,12.90
2016,07,27,02,33,12.90
2016,07,27,02,34,12.90
2016,07,27,02,35,12.90
2016,07,27,02,36,12.90
2016,07,27,02,37,12.90
2016,07,27,02,38,12.90
2016,07,27,02,39,12.90
2016,07,27,02,40,12.90
2016,07,27,02,41,12.90
2016,07,27,02,42,12.90
2016,07,27,02,43,12.90
2016,07,27,02,44,12.90
2016,07,27,02,45,12.90
2016,07,27,02,46,12.90
2016,07,27,02,47,12.90
2016,07,27,02,48,12.90
2016,07,27,02,49,12.90
2016,07,27,02,50,12.90
2016,07,27,02,51,12.80
2016,07,27,02,52,12.80
2016,07,27,02,53,12.80
2016,07,27,02,54,12.80
2016,07,27,02,55,12.80
2016,07,27,02,56,12.80
2016,07,27,02,57,12.80
2016,07,27,02,58,12.80
2016,07,27,02,59,12.80
2016,07,27,03,00,12.80
2016,07,27,03,01,12.70
2016,07,27,03,02,12.70
2016,07,27,03,03,12.70
2016,07,27,03,04,12.70
2016,07,27,03,05,12.70
2016,07,27,03,06,12.70
2016,07,27,03,07,12.70
2016,07,27,03,08,12.70
2016,07,27,03,09,12.70
2016,07,27,03,10,12.70
2016,07,27,03,11,12.70
2016,07,27,03,12,12.70
2016,07,27,03,13,12.70
2016,07,27,03,14,12.70
2016,07,27,03,15,12.70
2016,07,27,03,16,12.60
2016,07,27,03,17,12.60
2016,07,27,03,18,12.60
2016,07,27,03,19,12.60
2016,07,27,03,20,12.60
2016,07,27,03,21,12.60
2016,07,27,03,22,12.60
2016,07,27,03,23,12.60
2016,07,27,03,24,12.60
2016,07,27,03,25,12.60
2016,07,27,03,26,12.60
2016,07,27,03,27,12.60
2016,07,27,03,28,12.60
2016,07,27,03,29,12.60
2016,07,27,03,30,12.60
2016,07,27,03,31,12.60
2016,07,27,03,32,12.60
2016,07,27,03,33,12.60
2016,07,27,03,34,12.50
2016,07,27,03,35,12.50
2016,07,27,03,36,12.50
2016,07,27,03,37,12.50
2016,07,27,03,38,12.50
2016,07,27,03,39,12.50
2016,07,27,03,40,12.50
2016,07,27,03,41,12.50
2016,07,27,03,42,12.40
2016,07,27,03,43,12.40
2016,07,27,03,44,12.40
2016,07,27,03,45,12.40
2016,07,27,03,46,12.40
2016,07,27,03,47,12.40
2016,07,27,03,48,12.40
2016,07,27,03,49,12.30
2016,07,27,03,50,12.30
2016,07,27,03,51,12.30
2016,07,27,03,52,12.30
2016,07,27,03,53,12.30
2016,07,27,03,54,12.30
2016,07,27,03,55,12.30
2016,07,27,03,56,12.30
2016,07,27,03,57,12.30
2016,07,27,03,58,12.30
2016,07,27,03,59,12.30
2016,07,27,04,00,12.30
2016,07,27,04,01,12.20
2016,07,27,04,02,12.20
2016,07,27,04,03,12.20
2016,07,27,04,04,12.20
2016,07,27,04,05,12.20
2016,07,27,04,06,12.20
2016,07,27,04,07,12.20
2016,07,27,04,08,12.20
2016,07,27,04,09,12.20
2016,07,27,04,10,12.20
2016,07,27,04,11,12.20
2016,07,27,04,12,12.20
2016,07,27,04,13,12.20
2016,07,27,04,14,12.20
2016,07,27,04,15,12.20
2016,07,27,04,16,12.20
2016,07,27,04,17,12.20
2016,07,27,04,18,12.20
2016,07,27,04,19,12.20
2016,07,27,04,20,12.20
2016,07,27,04,21,12.20
2016,07,27,04,22,12.30
2016,07,27,04,23,12.30
2016,07,27,04,24,12.30
2016,07,27,04,25,12.30
2016,07,27,04,26,12.30
2016,07,27,04,27,12.30
2016,07,27,04,28,12.30
2016,07,27,04,29,12.30
2016,07,27,04,30,12.30
2016,07,27,04,31,12.30
2016,07,27,04,32,12.30
2016,07,27,04,33,12.30
2016,07,27,04,34,12.30
2016,07,27,04,35,12.30
2016,07,27,04,36,12.30
2016,07,27,04,37,12.30
2016,07,27,04,38,12.30
2016,07,27,04,39,12.30
2016,07,27,04,40,12.30
2016,07,27,04,41,12.30
2016,07,27,04,42,12.30
2016,07,27,04,43,12.30
2016,07,27,04,44,12.30
2016,07,27,04,45,12.30
2016,07,27,04,46,12.30
2016,07,27,04,47,12.30
2016,07,27,04,48,12.30
2016,07,27,04,49,12.30
2016,07,27,04,50,12.30
2016,07,27,04,51,12.30
2016,07,27,04,52,12.30
2016,07,27,04,53,12.30
2016,07,27,04,54,12.30
2016,07,27,04,55,12.30
2016,07,27,04,56,12.30
2016,07,27,04,57,12.30
2016,07,27,04,58,12.30
2016,07,27,04,59,12.30
2016,07,27,05,00,12.30
2016,07,27,05,01,12.20
2016,07,27,05,02,12.20
2016,07,27,05,03,12.20
2016,07,27,05,04,12.20
2016,07,27,05,05,12.20
2016,07,27,05,06,12.20
2016,07,27,05,07,12.20
2016,07,27,05,08,12.10
2016,07,27,05,09,12.10
2016,07,27,05,10,12.10
2016,07,27,05,11,12.10
2016,07,27,05,12,12.10
2016,07,27,05,13,12.10
2016,07,27,05,14,12.10
2016,07,27,05,15,12.10
2016,07,27,05,16,12.10
2016,07,27,05,17,12.10
2016,07,27,05,18,12.10
2016,07,27,05,19,12.10
2016,07,27,05,20,12.10
2016,07,27,05,21,12.10
2016,07,27,05,22,12.20
2016,07,27,05,23,12.20
2016,07,27,05,24,12.20
2016,07,27,05,25,12.20
2016,07,27,05,26,12.20
2016,07,27,05,27,12.20
2016,07,27,05,28,12.20
2016,07,27,05,29,12.20
2016,07,27,05,30,12.20
2016,07,27,05,31,12.20
2016,07,27,05,32,12.30
2016,07,27,05,33,12.30
2016,07,27,05,34,12.30
2016,07,27,05,35,12.30
2016,07,27,05,36,12.40
2016,07,27,05,37,12.40
2016,07,27,05,38,12.40
2016,07,27,05,39,12.50
2016,07,27,05,40,12.50
2016,07,27,05,41,12.60
2016,07,27,05,42,12.60
2016,07,27,05,43,12.60
2016,07,27,05,44,12.60
2016,07,27,05,45,12.60
2016,07,27,05,46,12.50
2016,07,27,05,47,12.40
2016,07,27,05,48,12.30
2016,07,27,05,49,12.30
2016,07,27,05,50,12.30
2016,07,27,05,51,12.30
2016,07,27,05,52,12.30
2016,07,27,05,53,12.30
2016,07,27,05,54,12.30
2016,07,27,05,55,12.30
2016,07,27,05,56,12.30
2016,07,27,05,57,12.30
2016,07,27,05,58,12.30
2016,07,27,05,59,12.30
2016,07,27,06,00,12.30
2016,07,27,06,01,12.30
2016,07,27,06,02,12.30
2016,07,27,06,03,12.30
2016,07,27,06,04,12.30
2016,07,27,06,05,12.20
2016,07,27,06,06,12.20
2016,07,27,06,07,12.20
2016,07,27,06,08,12.20
2016,07,27,06,09,12.30
2016,07,27,06,10,12.20
2016,07,27,06,11,12.20
2016,07,27,06,12,12.20
2016,07,27,06,13,12.20
2016,07,27,06,14,12.20
2016,07,27,06,15,12.30
2016,07,27,06,16,12.30
2016,07,27,06,17,12.20
2016,07,27,06,18,12.20
2016,07,27,06,19,12.20
2016,07,27,06,20,12.20
2016,07,27,06,21,12.20
2016,07,27,06,22,12.20
2016,07,27,06,23,12.20
2016,07,27,06,24,12.20
2016,07,27,06,25,12.20
2016,07,27,06,26,12.20
2016,07,27,06,27,12.20
2016,07,27,06,28,12.30
2016,07,27,06,29,12.30
2016,07,27,06,30,12.30
2016,07,27,06,31,12.30
2016,07,27,06,32,12.30
2016,07,27,06,33,12.40
2016,07,27,06,34,12.40
2016,07,27,06,35,12.40
2016,07,27,06,36,12.40
2016,07,27,06,37,12.40
2016,07,27,06,38,12.50
2016,07,27,06,39,12.50
2016,07,27,06,40,12.50
2016,07,27,06,41,12.60
2016,07,27,06,42,12.60
2016,07,27,06,43,12.60
2016,07,27,06,44,12.70
2016,07,27,06,45,12.70
2016,07,27,06,46,12.70
2016,07,27,06,47,12.70
2016,07,27,06,48,12.80
2016,07,27,06,49,12.80
2016,07,27,06,50,12.90
2016,07,27,06,51,12.90
2016,07,27,06,52,13.00
2016,07,27,06,53,13.00
2016,07,27,06,54,13.10
2016,07,27,06,55,13.10
2016,07,27,06,56,13.10
2016,07,27,06,57,13.20
2016,07,27,06,58,13.20
2016,07,27,06,59,13.30
2016,07,27,07,00,13.30
2016,07,27,07,01,13.30
2016,07,27,07,02,13.40
2016,07,27,07,03,13.40
2016,07,27,07,04,13.40
2016,07,27,07,05,13.50
2016,07,27,07,06,13.60
2016,07,27,07,07,13.60
2016,07,27,07,08,13.60
2016,07,27,07,09,13.70
2016,07,27,07,10,13.70
2016,07,27,07,11,13.80
2016,07,27,07,12,13.80
2016,07,27,07,13,13.90
2016,07,27,07,14,13.90
2016,07,27,07,15,14.00
2016,07,27,07,16,14.10
2016,07,27,07,17,14.10
2016,07,27,07,18,14.20
2016,07,27,07,19,14.20
2016,07,27,07,20,14.30
2016,07,27,07,21,14.30
2016,07,27,07,22,14.40
2016,07,27,07,23,14.50
2016,07,27,07,24,14.50
2016,07,27,07,25,14.60
2016,07,27,07,26,14.70
2016,07,27,07,27,14.80
2016,07,27,07,28,14.80
2016,07,27,07,29,14.80
2016,07,27,07,30,14.90
2016,07,27,07,31,14.90
2016,07,27,07,32,15.00
2016,07,27,07,33,15.00
2016,07,27,07,34,15.10
2016,07,27,07,35,15.20
2016,07,27,07,36,15.30
2016,07,27,07,37,15.30
2016,07,27,07,38,15.40
2016,07,27,07,39,15.50
2016,07,27,07,40,15.60
2016,07,27,07,41,15.70
2016,07,27,07,42,15.80
2016,07,27,07,43,15.80
2016,07,27,07,44,15.90
2016,07,27,07,45,16.00
2016,07,27,07,46,16.10
2016,07,27,07,47,16.20
2016,07,27,07,48,16.20
2016,07,27,07,49,16.30
2016,07,27,07,50,16.30
2016,07,27,07,51,16.40
2016,07,27,07,52,16.40
2016,07,27,07,53,16.40
2016,07,27,07,54,16.50
2016,07,27,07,55,16.60
2016,07,27,07,56,16.60
2016,07,27,07,57,16.60
2016,07,27,07,58,16.70
2016,07,27,07,59,16.70
2016,07,27,08,00,16.80
2016,07,27,08,01,16.80
2016,07,27,08,02,16.80
2016,07,27,08,03,16.90
2016,07,27,08,04,16.90
2016,07,27,08,05,16.90
2016,07,27,08,06,16.90
2016,07,27,08,07,17.00
2016,07,27,08,08,17.00
2016,07,27,08,09,17.10
2016,07,27,08,10,17.10
2016,07,27,08,11,17.10
2016,07,27,08,12,17.10
2016,07,27,08,13,17.20
2016,07,27,08,14,17.20
2016,07,27,08,15,17.10
2016,07,27,08,16,17.10
2016,07,27,08,17,17.10
2016,07,27,08,18,17.10
2016,07,27,08,19,17.10
2016,07,27,08,20,17.10
2016,07,27,08,21,17.10
2016,07,27,08,22,17.10
2016,07,27,08,23,17.10
2016,07,27,08,24,17.10
2016,07,27,08,25,17.10
2016,07,27,08,26,17.20
2016,07,27,08,27,17.20
2016,07,27,08,28,17.20
2016,07,27,08,29,17.20
2016,07,27,08,30,17.30
2016,07,27,08,31,17.30
2016,07,27,08,32,17.30
2016,07,27,08,33,17.30
2016,07,27,08,34,17.40
2016,07,27,08,35,17.40
2016,07,27,08,36,17.50
2016,07,27,08,37,17.50
2016,07,27,08,38,17.50
2016,07,27,08,39,17.60
2016,07,27,08,40,17.60
2016,07,27,08,41,17.60
2016,07,27,08,42,17.70
2016,07,27,08,43,17.70
2016,07,27,08,44,17.80
2016,07,27,08,45,17.80
2016,07,27,08,46,17.80
2016,07,27,08,47,17.80
2016,07,27,08,48,17.90
2016,07,27,08,49,17.90
2016,07,27,08,50,17.90
2016,07,27,08,51,17.90
2016,07,27,08,52,17.90
2016,07,27,08,53,18.00
2016,07,27,08,54,18.00
2016,07,27,08,55,18.00
2016,07,27,08,56,18.00
2016,07,27,08,57,18.00
2016,07,27,08,58,18.00
2016,07,27,08,59,18.10
2016,07,27,09,00,18.10
2016,07,27,09,01,18.10
2016,07,27,09,02,18.20
2016,07,27,09,03,18.20
2016,07,27,09,04,18.20
2016,07,27,09,05,18.30
2016,07,27,09,06,18.40
2016,07,27,09,07,18.50
2016,07,27,09,08,18.60
2016,07,27,09,09,18.80
2016,07,27,09,10,18.90
2016,07,27,09,11,19.00
2016,07,27,09,12,19.20
2016,07,27,09,13,19.30
2016,07,27,09,14,19.40
2016,07,27,09,15,19.50
2016,07,27,09,16,19.60
2016,07,27,09,17,19.70
2016,07,27,09,18,19.80
2016,07,27,09,19,19.90
2016,07,27,09,20,19.90
2016,07,27,09,21,19.90
2016,07,27,09,22,19.90
2016,07,27,09,23,19.90
2016,07,27,09,24,19.90
2016,07,27,09,25,20.00
2016,07,27,09,26,20.00
2016,07,27,09,27,20.10
2016,07,27,09,28,20.10
2016,07,27,09,29,20.10
2016,07,27,09,30,20.10
2016,07,27,09,31,20.00
2016,07,27,09,32,20.00
2016,07,27,09,33,20.00
2016,07,27,09,34,20.00
2016,07,27,09,35,20.00
2016,07,27,09,36,20.10
2016,07,27,09,37,20.10
2016,07,27,09,38,20.10
2016,07,27,09,39,20.20
2016,07,27,09,40,20.20
2016,07,27,09,41,20.20
2016,07,27,09,42,20.10
2016,07,27,09,43,20.10
2016,07,27,09,44,20.10
2016,07,27,09,45,20.10
2016,07,27,09,46,20.20
2016,07,27,09,47,20.20
2016,07,27,09,48,20.20
2016,07,27,09,49,20.10
2016,07,27,09,50,20.10
2016,07,27,09,51,20.20
2016,07,27,09,52,20.20
2016,07,27,09,53,20.20
2016,07,27,09,54,20.30
2016,07,27,09,55,20.30
2016,07,27,09,56,20.30
2016,07,27,09,57,20.40
2016,07,27,09,58,20.40
2016,07,27,09,59,20.50
2016,07,27,10,00,20.50
2016,07,27,10,01,20.60
2016,07,27,10,02,20.60
2016,07,27,10,03,20.70
2016,07,27,10,04,20.70
2016,07,27,10,05,20.70
2016,07,27,10,06,20.80
2016,07,27,10,07,20.80
2016,07,27,10,08,20.80
2016,07,27,10,09,20.80
2016,07,27,10,10,20.80
2016,07,27,10,11,20.80
2016,07,27,10,12,20.70
2016,07,27,10,13,20.70
2016,07,27,10,14,20.60
2016,07,27,10,15,20.60
2016,07,27,10,16,20.60
2016,07,27,10,17,20.60
2016,07,27,10,18,20.60
2016,07,27,10,19,20.60
2016,07,27,10,20,20.60
2016,07,27,10,21,20.70
2016,07,27,10,22,20.70
2016,07,27,10,23,20.70
2016,07,27,10,24,20.80
2016,07,27,10,25,20.80
2016,07,27,10,26,20.90
2016,07,27,10,27,20.90
2016,07,27,10,28,20.90
2016,07,27,10,29,20.90
2016,07,27,10,30,20.90
2016,07,27,10,31,20.90
2016,07,27,10,32,20.90
2016,07,27,10,33,20.90
2016,07,27,10,34,20.80
2016,07,27,10,35,20.90
2016,07,27,10,36,20.90
2016,07,27,10,37,20.90
2016,07,27,10,38,21.00
2016,07,27,10,39,21.10
2016,07,27,10,40,21.10
2016,07,27,10,41,21.10
2016,07,27,10,42,21.10
2016,07,27,10,43,21.20
2016,07,27,10,44,21.20
2016,07,27,10,45,21.20
2016,07,27,10,46,21.20
2016,07,27,10,47,21.20
2016,07,27,10,48,21.30
2016,07,27,10,49,21.30
2016,07,27,10,50,21.30
2016,07,27,10,51,21.40
2016,07,27,10,52,21.40
2016,07,27,10,53,21.30
2016,07,27,10,54,21.30
2016,07,27,10,55,21.20
2016,07,27,10,56,21.10
2016,07,27,10,57,21.10
2016,07,27,10,58,21.10
2016,07,27,10,59,21.20
2016,07,27,11,00,21.30
2016,07,27,11,01,21.30
2016,07,27,11,02,21.40
2016,07,27,11,03,21.50
2016,07,27,11,04,21.50
2016,07,27,11,05,21.50
2016,07,27,11,06,21.50
2016,07,27,11,07,21.50
2016,07,27,11,08,21.60
2016,07,27,11,09,21.60
2016,07,27,11,10,21.70
2016,07,27,11,11,21.70
2016,07,27,11,12,21.70
2016,07,27,11,13,21.60
2016,07,27,11,14,21.60
2016,07,27,11,15,21.60
2016,07,27,11,16,21.60
2016,07,27,11,17,21.60
2016,07,27,11,18,21.60
2016,07,27,11,19,21.60
2016,07,27,11,20,21.60
2016,07,27,11,21,21.60
2016,07,27,11,22,21.50
2016,07,27,11,23,21.50
2016,07,27,11,24,21.50
2016,07,27,11,25,21.50
2016,07,27,11,26,21.50
2016,07,27,11,27,21.40
2016,07,27,11,28,21.40
2016,07,27,11,29,21.40
2016,07,27,11,30,21.40
2016,07,27,11,31,21.40
2016,07,27,11,32,21.40
2016,07,27,11,33,21.40
2016,07,27,11,34,21.40
2016,07,27,11,35,21.40
2016,07,27,11,36,21.40
2016,07,27,11,37,21.50
2016,07,27,11,38,21.60
2016,07,27,11,39,21.60
2016,07,27,11,40,21.70
2016,07,27,11,41,21.70
2016,07,27,11,42,21.80
2016,07,27,11,43,21.90
2016,07,27,11,44,22.00
2016,07,27,11,45,22.00
2016,07,27,11,46,22.00
2016,07,27,11,47,21.90
2016,07,27,11,48,21.90
2016,07,27,11,49,21.80
2016,07,27,11,50,21.80
2016,07,27,11,51,21.90
2016,07,27,11,52,21.90
2016,07,27,11,53,21.90
2016,07,27,11,54,21.90
2016,07,27,11,55,21.90
2016,07,27,11,56,21.90
2016,07,27,11,57,21.90
2016,07,27,11,58,22.00
2016,07,27,11,59,22.00
2016,07,27,12,00,22.10
2016,07,27,12,01,22.20
2016,07,27,12,02,22.20
2016,07,27,12,03,22.20
2016,07,27,12,04,22.20
2016,07,27,12,05,22.20
2016,07,27,12,06,22.20
2016,07,27,12,07,22.30
2016,07,27,12,08,22.30
2016,07,27,12,09,22.30
2016,07,27,12,10,22.30
2016,07,27,12,11,22.30
2016,07,27,12,12,22.30
2016,07,27,12,13,22.30
2016,07,27,12,14,22.30
2016,07,27,12,15,22.20
2016,07,27,12,16,22.20
2016,07,27,12,17,22.20
2016,07,27,12,18,22.20
2016,07,27,12,19,22.20
2016,07,27,12,20,22.30
2016,07,27,12,21,22.30
2016,07,27,12,22,22.40
2016,07,27,12,23,22.50
2016,07,27,12,24,22.60
2016,07,27,12,25,22.70
2016,07,27,12,26,22.80
2016,07,27,12,27,22.80
2016,07,27,12,28,22.70
2016,07,27,12,29,22.60
2016,07,27,12,30,22.60
2016,07,27,12,31,22.50
2016,07,27,12,32,22.50
2016,07,27,12,33,22.50
2016,07,27,12,34,22.50
2016,07,27,12,35,22.50
2016,07,27,12,36,22.60
2016,07,27,12,37,22.60
2016,07,27,12,38,22.70
2016,07,27,12,39,22.80
2016,07,27,12,40,22.90
2016,07,27,12,41,23.00
2016,07,27,12,42,23.10
2016,07,27,12,43,23.10
2016,07,27,12,44,23.20
2016,07,27,12,45,23.20
2016,07,27,12,46,23.20
2016,07,27,12,47,23.30
2016,07,27,12,48,23.30
2016,07,27,12,49,23.30
2016,07,27,12,50,23.30
2016,07,27,12,51,23.30
2016,07,27,12,52,23.40
2016,07,27,12,53,23.40
2016,07,27,12,54,23.50
2016,07,27,12,55,23.50
2016,07,27,12,56,23.50
2016,07,27,12,57,23.30
2016,07,27,12,58,23.00
2016,07,27,12,59,22.80
2016,07,27,13,00,22.50
2016,07,27,13,01,22.30
2016,07,27,13,02,22.20
2016,07,27,13,03,22.00
2016,07,27,13,04,21.90
2016,07,27,13,05,21.80
2016,07,27,13,06,21.90
2016,07,27,13,07,21.90
2016,07,27,13,08,22.00
2016,07,27,13,09,22.00
2016,07,27,13,10,22.00
2016,07,27,13,11,22.10
2016,07,27,13,12,22.30
2016,07,27,13,13,22.40
2016,07,27,13,14,22.40
2016,07,27,13,15,22.40
2016,07,27,13,16,22.30
2016,07,27,13,17,22.30
2016,07,27,13,18,22.20
2016,07,27,13,19,22.20
2016,07,27,13,20,22.20
2016,07,27,13,21,22.10
2016,07,27,13,22,22.10
2016,07,27,13,23,22.10
2016,07,27,13,24,22.20
2016,07,27,13,25,22.30
2016,07,27,13,26,22.30
2016,07,27,13,27,22.30
2016,07,27,13,28,22.30
2016,07,27,13,29,22.40
2016,07,27,13,30,22.40
2016,07,27,13,31,22.50
2016,07,27,13,32,22.60
2016,07,27,13,33,22.80
2016,07,27,13,34,22.90
2016,07,27,13,35,23.10
2016,07,27,13,36,23.10
2016,07,27,13,37,23.20
2016,07,27,13,38,23.10
2016,07,27,13,39,23.00
2016,07,27,13,40,22.90
2016,07,27,13,41,22.90
2016,07,27,13,42,22.80
2016,07,27,13,43,22.80
2016,07,27,13,44,22.80
2016,07,27,13,45,22.70
2016,07,27,13,46,22.60
2016,07,27,13,47,22.60
2016,07,27,13,48,22.50
2016,07,27,13,49,22.40
2016,07,27,13,50,22.40
2016,07,27,13,51,22.30
2016,07,27,13,52,22.20
2016,07,27,13,53,22.20
2016,07,27,13,54,22.20
2016,07,27,13,55,22.10
2016,07,27,13,56,22.10
2016,07,27,13,57,22.10
2016,07,27,13,58,22.10
2016,07,27,13,59,22.20
2016,07,27,14,00,22.20
2016,07,27,14,01,22.20
2016,07,27,14,02,22.30
2016,07,27,14,03,22.40
2016,07,27,14,04,22.60
2016,07,27,14,05,22.60
2016,07,27,14,06,22.70
2016,07,27,14,07,22.70
2016,07,27,14,08,22.70
2016,07,27,14,09,22.70
2016,07,27,14,10,22.70
2016,07,27,14,11,22.70
2016,07,27,14,12,22.70
2016,07,27,14,13,22.70
2016,07,27,14,14,22.80
2016,07,27,14,15,22.80
2016,07,27,14,16,22.80
2016,07,27,14,17,22.90
2016,07,27,14,18,22.90
2016,07,27,14,19,22.90
2016,07,27,14,20,22.90
2016,07,27,14,21,22.90
2016,07,27,14,22,22.90
2016,07,27,14,23,22.90
2016,07,27,14,24,22.90
2016,07,27,14,25,22.90
2016,07,27,14,26,23.00
2016,07,27,14,27,23.10
2016,07,27,14,28,23.20
2016,07,27,14,29,23.30
2016,07,27,14,30,23.20
2016,07,27,14,31,23.00
2016,07,27,14,32,22.90
2016,07,27,14,33,22.80
2016,07,27,14,34,22.80
2016,07,27,14,35,22.80
2016,07,27,14,36,22.80
2016,07,27,14,37,22.80
2016,07,27,14,38,22.70
2016,07,27,14,39,22.60
2016,07,27,14,40,22.60
2016,07,27,14,41,22.70
2016,07,27,14,42,22.70
2016,07,27,14,43,22.80
2016,07,27,14,44,22.90
2016,07,27,14,45,22.90
2016,07,27,14,46,23.00
2016,07,27,14,47,23.10
2016,07,27,14,48,23.10
2016,07,27,14,49,23.10
2016,07,27,14,50,23.10
2016,07,27,14,51,23.00
2016,07,27,14,52,22.90
2016,07,27,14,53,22.80
2016,07,27,14,54,22.70
2016,07,27,14,55,22.70
2016,07,27,14,56,22.70
2016,07,27,14,57,22.70
2016,07,27,14,58,22.70
2016,07,27,14,59,22.70
2016,07,27,15,00,22.80
2016,07,27,15,01,22.80
2016,07,27,15,02,22.80
2016,07,27,15,03,22.80
2016,07,27,15,04,22.90
2016,07,27,15,05,22.90
2016,07,27,15,06,22.90
2016,07,27,15,07,22.90
2016,07,27,15,08,22.80
2016,07,27,15,09,22.70
2016,07,27,15,10,22.70
2016,07,27,15,11,22.70
2016,07,27,15,12,22.80
2016,07,27,15,13,22.90
2016,07,27,15,14,23.00
2016,07,27,15,15,23.10
2016,07,27,15,16,23.20
2016,07,27,15,17,23.30
2016,07,27,15,18,23.30
2016,07,27,15,19,23.20
2016,07,27,15,20,23.20
2016,07,27,15,21,23.30
2016,07,27,15,22,23.30
2016,07,27,15,23,23.40
2016,07,27,15,24,23.50
2016,07,27,15,25,23.60
2016,07,27,15,26,23.80
2016,07,27,15,27,23.80
2016,07,27,15,28,23.80
2016,07,27,15,29,23.80
2016,07,27,15,30,23.80
2016,07,27,15,31,23.70
2016,07,27,15,32,23.70
2016,07,27,15,33,23.60
2016,07,27,15,34,23.60
2016,07,27,15,35,23.50
2016,07,27,15,36,23.60
2016,07,27,15,37,23.60
2016,07,27,15,38,23.70
2016,07,27,15,39,23.70
2016,07,27,15,40,23.60
2016,07,27,15,41,23.70
2016,07,27,15,42,23.70
2016,07,27,15,43,23.70
2016,07,27,15,44,23.70
2016,07,27,15,45,23.70
2016,07,27,15,46,23.70
2016,07,27,15,47,23.70
2016,07,27,15,48,23.80
2016,07,27,15,49,23.70
2016,07,27,15,50,23.70
2016,07,27,15,51,23.70
2016,07,27,15,52,23.70
2016,07,27,15,53,23.80
2016,07,27,15,54,23.90
2016,07,27,15,55,23.90
2016,07,27,15,56,23.90
2016,07,27,15,57,23.90
2016,07,27,15,58,23.80
2016,07,27,15,59,23.80
2016,07,27,16,00,23.80
2016,07,27,16,01,23.80
2016,07,27,16,02,23.70
2016,07,27,16,03,23.70
2016,07,27,16,04,23.60
2016,07,27,16,05,23.50
2016,07,27,16,06,23.40
2016,07,27,16,07,23.40
2016,07,27,16,08,23.50
2016,07,27,16,09,23.50
2016,07,27,16,10,23.50
2016,07,27,16,11,23.50
2016,07,27,16,12,23.50
2016,07,27,16,13,23.60
2016,07,27,16,14,23.60
2016,07,27,16,15,23.60
2016,07,27,16,16,23.50
2016,07,27,16,17,23.50
2016,07,27,16,18,23.50
2016,07,27,16,19,23.50
2016,07,27,16,20,23.50
2016,07,27,16,21,23.50
2016,07,27,16,22,23.60
2016,07,27,16,23,23.60
2016,07,27,16,24,23.60
2016,07,27,16,25,23.50
2016,07,27,16,26,23.50
2016,07,27,16,27,23.60
2016,07,27,16,28,23.60
2016,07,27,16,29,23.60
2016,07,27,16,30,23.70
2016,07,27,16,31,23.70
2016,07,27,16,32,23.70
2016,07,27,16,33,23.70
2016,07,27,16,34,23.60
2016,07,27,16,35,23.60
2016,07,27,16,36,23.50
2016,07,27,16,37,23.50
2016,07,27,16,38,23.50
2016,07,27,16,39,23.60
2016,07,27,16,40,23.50
2016,07,27,16,41,23.50
2016,07,27,16,42,23.40
2016,07,27,16,43,23.40
2016,07,27,16,44,23.40
2016,07,27,16,45,23.30
2016,07,27,16,46,23.30
2016,07,27,16,47,23.20
2016,07,27,16,48,23.10
2016,07,27,16,49,23.00
2016,07,27,16,50,23.00
2016,07,27,16,51,23.10
2016,07,27,16,52,23.10
2016,07,27,16,53,23.20
2016,07,27,16,54,23.20
2016,07,27,16,55,23.10
2016,07,27,16,56,22.90
2016,07,27,16,57,22.70
2016,07,27,16,58,22.60
2016,07,27,16,59,22.50
2016,07,27,17,00,22.40
2016,07,27,17,01,22.30
2016,07,27,17,02,22.30
2016,07,27,17,03,22.30
2016,07,27,17,04,22.30
2016,07,27,17,05,22.40
2016,07,27,17,06,22.40
2016,07,27,17,07,22.30
2016,07,27,17,08,22.20
2016,07,27,17,09,22.20
2016,07,27,17,10,22.20
2016,07,27,17,11,22.20
2016,07,27,17,12,22.20
2016,07,27,17,13,22.10
2016,07,27,17,14,22.10
2016,07,27,17,15,22.10
2016,07,27,17,16,22.10
2016,07,27,17,17,22.10
2016,07,27,17,18,22.10
2016,07,27,17,19,22.20